Tracking 21076 objects as of 9-Aug-2020
HD Live streaming from Space Station
objects crossing your sky now
Track the most recent launched group of Starlink satellites

IRIDIUM 74


IRIDIUM 74 is no longer on orbit
IRIDIUM 74 is classified as:


NORAD ID: 25345
Int'l Code: 1998-032D
Perigee: N/A
Apogee: N/A
Inclination: N/A
Period: N/A
Semi major axis: N/A
RCS: N/A
Launch date: May 17, 1998
Source: United States (US)
Launch site: AIR FORCE WESTERN TEST RANGE (AFWTR)
Decay date: 2017-06-11
aabbcc
Your satellite tracking list
Your tracking list is empty




NASA's NSSDC Master Catalog

Two Line Element Set (TLE):
1 25345U 98032D   17162.54796321 -.09071452 -21083-5 -59847-4 0  9992
2 25345 086.4257 226.3531 0170155 339.6866 019.6941 16.25227347001960
Source of the keplerian elements: AFSPC